Satellite-Ground Cal/Val Region Overpasses Predictions

Prediction of Satellite NPP Overpassing Cal/Val Region: PacNW

Region Location: (Latitude: 10.00, Longitude: 139.50) to (Latitude: 22.70, Longitude: 165.60).

Table of predicted overpasses for the next 14.0 days since TLE Epoch: 1/25/2020
Interval Starting Time Starting Location Ending Time Ending Location
1 01/26/2020 02:19:39 ( 10.01, 164.73) 01/26/2020 02:23:15 ( 22.70, 161.71)
2 01/26/2020 14:51:33 ( 22.67, 161.95) 01/26/2020 14:55:08 ( 10.04, 158.95)
3 01/27/2020 03:42:07 ( 10.01, 144.11) 01/27/2020 03:45:43 ( 22.70, 141.09)
4 01/27/2020 14:33:49 ( 18.10, 165.59) 01/27/2020 14:36:06 ( 10.05, 163.71)
5 01/27/2020 16:14:01 ( 22.67, 141.33) 01/27/2020 16:16:10 ( 15.10, 139.50)
6 01/28/2020 03:23:06 ( 10.01, 148.86) 01/28/2020 03:26:42 ( 22.69, 145.85)
7 01/28/2020 15:55:00 ( 22.67, 146.09) 01/28/2020 15:58:35 ( 10.05, 143.09)
8 01/29/2020 03:04:04 ( 10.01, 153.62) 01/29/2020 03:07:40 ( 22.69, 150.60)
9 01/29/2020 15:35:58 ( 22.67, 150.84) 01/29/2020 15:39:33 ( 10.05, 147.84)
10 01/30/2020 02:45:03 ( 10.00, 158.38) 01/30/2020 02:48:39 ( 22.69, 155.36)
11 01/30/2020 15:16:57 ( 22.68, 155.60) 01/30/2020 15:20:32 ( 10.06, 152.60)
12 01/31/2020 02:26:02 ( 10.00, 163.13) 01/31/2020 02:29:38 ( 22.68, 160.12)
13 01/31/2020 14:57:55 ( 22.68, 160.36) 01/31/2020 15:01:31 ( 10.00, 157.34)
14 02/01/2020 02:09:46 ( 19.75, 165.60) 02/01/2020 02:10:36 ( 22.68, 164.87)
15 02/01/2020 03:48:30 ( 10.00, 142.51) 02/01/2020 03:52:05 ( 22.63, 139.51)
16 02/01/2020 14:38:54 ( 22.68, 165.11) 02/01/2020 14:42:30 ( 10.00, 162.10)
17 02/01/2020 16:20:24 ( 22.68, 139.74) 02/01/2020 16:20:40 ( 21.74, 139.50)
18 02/02/2020 03:29:29 ( 10.00, 147.27) 02/02/2020 03:33:05 ( 22.68, 144.25)
19 02/02/2020 16:01:22 ( 22.68, 144.49) 02/02/2020 16:04:58 ( 10.00, 141.48)
20 02/03/2020 03:10:28 ( 10.06, 152.01) 02/03/2020 03:14:03 ( 22.68, 149.01)
21 02/03/2020 15:42:21 ( 22.68, 149.25) 02/03/2020 15:45:57 ( 10.01, 146.23)
22 02/04/2020 02:51:27 ( 10.06, 156.77) 02/04/2020 02:55:02 ( 22.68, 153.76)
23 02/04/2020 15:23:19 ( 22.69, 154.01) 02/04/2020 15:26:55 ( 10.01, 150.99)
24 02/05/2020 02:32:25 ( 10.05, 161.52) 02/05/2020 02:36:00 ( 22.68, 158.52)
25 02/05/2020 15:04:18 ( 22.69, 158.76) 02/05/2020 15:07:54 ( 10.01, 155.75)
26 02/06/2020 02:14:15 ( 13.05, 165.59) 02/06/2020 02:16:59 ( 22.68, 163.28)
27 02/06/2020 03:54:54 ( 10.06, 140.90) 02/06/2020 03:56:36 ( 16.05, 139.51)
28 02/06/2020 14:45:16 ( 22.69, 163.52) 02/06/2020 14:48:52 ( 10.01, 160.50)
29 02/07/2020 03:35:52 ( 10.06, 145.66) 02/07/2020 03:39:27 ( 22.68, 142.66)
30 02/07/2020 14:29:26 ( 11.48, 165.59) 02/07/2020 14:29:51 ( 10.01, 165.26)
31 02/07/2020 16:07:45 ( 22.69, 142.90) 02/07/2020 16:11:21 ( 10.01, 139.88)
32 02/08/2020 03:16:51 ( 10.06, 150.41) 02/08/2020 03:20:26 ( 22.68, 147.41)


NCC Satellite Cal/Val Overpasses Prediction Service
